EW6753 Weather Reports


Display with metric or nautical units.
time (UTC)temp
F
wind
direction
speed
MPH
gust
MPH
rain 1hr
in
rain 24hr
in
rain mn
in
humidity
%
barometer
mb
20221206102503 10 51 1.0 4.0 0.00 0.00 0.00 76 1018.7
20221206102003 10 40 2.0 4.0 0.00 0.00 0.00 76 1018.8
20221206101503 10 30 2.0 4.0 0.00 0.00 0.00 76 1018.6
20221206101003 10 27 1.0 4.0 0.00 0.00 0.00 75 1018.8
20221206100502 10 25 1.0 2.0 0.00 0.00 0.00 75 1018.7
20221206100024 10 25 1.0 2.0 0.00 0.00 0.00 75 1018.7
20221206095503 10 25 0.0 1.0 0.00 0.00 0.00 75 1018.9
20221206095003 10 25 0.0 2.0 0.00 0.00 0.00 75 1019.1
20221206094503 10 25 1.0 3.0 0.00 0.00 0.00 75 1019.0
20221206094003 10 25 0.0 3.0 0.00 0.00 0.00 75 1019.0
20221206093503 10 18 0.0 3.0 0.00 0.00 0.00 75 1018.7
20221206093023 10 13 1.0 4.0 0.00 0.00 0.00 74 1018.9
20221206092503 10 3 0.0 4.0 0.00 0.00 0.00 74 1018.7
20221206092004 10 0 0.0 0.0 0.00 0.00 0.00 74 1018.9
20221206091524 10 0 0.0 0.0 0.00 0.00 0.00 73 1018.9
20221206091003 10 0 0.0 0.0 0.00 0.00 0.00 73 1019.0
20221206090503 10 0 0.0 0.0 0.00 0.00 0.00 73 1018.9
20221206090003 10 0 0.0 0.0 0.00 0.00 0.00 73 1018.8
20221206085524 10 0 0.0 0.0 0.00 0.00 0.00 73 1018.9
20221206085003 11 0 0.0 0.0 0.00 0.00 0.00 73 1018.9
20221206084503 11 0 0.0 0.0 0.00 0.00 0.00 72 1018.9
20221206084024 11 0 0.0 0.0 0.00 0.00 0.00 72 1019.2
20221206083503 11 0 0.0 0.0 0.00 0.00 0.00 72 1019.3
20221206083003 11 0 0.0 0.0 0.00 0.00 0.00 72 1019.6
20221206082503 11 0 0.0 0.0 0.00 0.00 0.00 72 1019.6
20221206082024 12 0 0.0 0.0 0.00 0.00 0.00 72 1019.5
20221206081503 12 0 0.0 0.0 0.00 0.00 0.00 72 1019.6
20221206081004 12 0 0.0 0.0 0.00 0.00 0.00 71 1019.4
20221206080503 12 0 0.0 0.0 0.00 0.00 0.00 71 1019.3
20221206080003 12 0 0.0 0.0 0.00 0.00 0.00 71 1019.2
20221206075503 12 0 0.0 0.0 0.00 0.00 0.00 71 1019.1
20221206075003 12 0 0.0 0.0 0.00 0.00 0.00 71 1019.0
20221206074503 12 0 0.0 0.0 0.00 0.00 0.00 71 1019.0
20221206074003 12 0 0.0 0.0 0.00 0.00 0.00 71 1019.0
20221206073502 12 0 0.0 0.0 0.00 0.00 0.00 71 1018.9
20221206073003 12 0 0.0 0.0 0.00 0.00 0.00 70 1018.8
20221206072504 12 0 0.0 0.0 0.00 0.00 0.00 70 1019.1
20221206072003 12 0 0.0 0.0 0.00 0.00 0.00 70 1019.1
20221206071524 13 0 0.0 0.0 0.00 0.00 0.00 70 1019.0
20221206071003 13 0 0.0 0.0 0.00 0.00 0.00 70 1019.0
20221206070503 13 0 0.0 0.0 0.00 0.00 0.00 70 1019.0
20221206070024 13 0 0.0 0.0 0.00 0.00 0.00 70 1018.9
20221206065503 13 0 0.0 0.0 0.00 0.00 0.00 70 1019.1
20221206065003 13 0 0.0 0.0 0.00 0.00 0.00 70 1019.2
20221206064503 14 0 0.0 0.0 0.00 0.00 0.00 70 1019.0
20221206064024 14 0 0.0 0.0 0.00 0.00 0.00 70 1019.0
20221206063503 14 0 0.0 0.0 0.00 0.00 0.00 70 1018.8
20221206063004 14 0 0.0 0.0 0.00 0.00 0.00 70 1018.7
20221206062503 14 0 0.0 0.0 0.00 0.00 0.00 70 1018.7
20221206062004 14 0 0.0 0.0 0.00 0.00 0.00 69 1018.7
20221206061503 15 0 0.0 0.0 0.00 0.00 0.00 69 1018.8
20221206061004 15 0 0.0 0.0 0.00 0.00 0.00 69 1018.7
20221206060503 15 0 0.0 0.0 0.00 0.00 0.00 69 1018.7
20221206060024 15 0 0.0 0.0 0.00 0.00 0.00 69 1018.6
20221206055503 15 0 0.0 0.0 0.00 0.00 0.00 69 1018.6
20221206055003 16 0 0.0 0.0 0.00 0.00 0.00 68 1018.6
20221206054503 16 0 0.0 0.0 0.00 0.00 0.00 68 1018.5
20221206054003 16 0 0.0 0.0 0.00 0.00 0.00 68 1018.6
20221206053503 16 340 0.0 2.0 0.00 0.00 0.00 68 1018.5
20221206053003 16 340 0.0 2.0 0.00 0.00 0.00 68 1018.5
20221206052504 16 0 0.0 0.0 0.00 0.00 0.00 68 1018.5
20221206052003 17 0 0.0 0.0 0.00 0.00 0.00 68 1018.6
20221206051503 17 0 0.0 0.0 0.00 0.00 0.00 68 1018.4
20221206051004 17 0 0.0 0.0 0.00 0.00 0.00 68 1018.4
20221206050503 17 340 0.0 2.0 0.00 0.00 0.00 68 1018.4
20221206050003 17 340 0.0 2.0 0.00 0.00 0.00 68 1018.2
20221206045503 17 340 0.0 1.0 0.00 0.00 0.00 67 1018.2
20221206045004 18 340 0.0 1.0 0.00 0.00 0.00 67 1018.2
20221206044503 18 337 0.0 2.0 0.00 0.00 0.00 67 1018.3
20221206044025 18 333 1.0 3.0 0.00 0.00 0.00 67 1018.2
20221206043503 18 331 1.0 3.0 0.00 0.00 0.00 67 1018.1
20221206043004 18 324 0.0 3.0 0.00 0.00 0.00 66 1018.1
20221206042502 18 320 0.0 3.0 0.00 0.00 0.00 66 1018.1
20221206042003 18 315 0.0 2.0 0.00 0.00 0.00 66 1018.0
20221206041503 18 315 0.0 2.0 0.00 0.00 0.00 66 1017.9
20221206041003 18 316 0.0 3.0 0.00 0.00 0.00 66 1017.9
20221206040503 18 318 0.0 3.0 0.00 0.00 0.00 66 1017.8
20221206040024 18 321 0.0 1.0 0.00 0.00 0.00 65 1017.9
20221206035503 19 321 0.0 1.0 0.00 0.00 0.00 65 1017.9
20221206035003 19 322 0.0 1.0 0.00 0.00 0.00 65 1017.9
20221206034525 19 324 0.0 3.0 0.00 0.00 0.00 65 1017.9
20221206034003 19 316 0.0 3.0 0.00 0.00 0.00 64 1017.9
20221206033503 19 309 0.0 2.0 0.00 0.00 0.00 64 1017.9
20221206033003 19 309 0.0 2.0 0.00 0.00 0.00 64 1017.9
20221206032503 20 318 1.0 4.0 0.00 0.00 0.00 64 1018.0
20221206032003 20 321 1.0 4.0 0.00 0.00 0.00 63 1017.8
20221206031503 20 5 0.0 1.0 0.00 0.00 0.00 63 1017.8
20221206031003 20 5 0.0 1.0 0.00 0.00 0.00 63 1017.7
20221206030503 20 5 0.0 3.0 0.00 0.00 0.00 63 1017.6
20221206030003 20 7 1.0 4.0 0.00 0.00 0.00 63 1017.6
20221206025502 20 358 1.0 4.0 0.00 0.00 0.00 63 1017.6
20221206025003 20 354 1.0 8.0 0.00 0.00 0.00 63 1017.6
20221206024524 21 348 2.0 8.0 0.00 0.00 0.00 63 1017.6
20221206024003 21 315 1.0 6.0 0.00 0.00 0.00 62 1017.6
20221206023503 21 336 1.0 6.0 0.00 0.00 0.00 62 1017.4
20221206023003 21 336 2.0 6.0 0.00 0.00 0.00 62 1017.4
20221206022504 21 328 2.0 7.0 0.00 0.00 0.00 61 1017.5
20221206022004 21 334 1.0 7.0 0.00 0.00 0.00 61 1017.6
20221206021503 22 333 1.0 5.0 0.00 0.00 0.00 61 1017.5
20221206021003 22 315 1.0 5.0 0.00 0.00 0.00 61 1017.5
20221206020503 22 295 1.0 4.0 0.00 0.00 0.00 60 1017.4
20221206020003 22 296 1.0 4.0 0.00 0.00 0.00 61 1017.3
20221206015503 22 327 1.0 2.0 0.00 0.00 0.00 60 1017.2
20221206015003 22 329 1.0 3.0 0.00 0.00 0.00 60 1017.1
20221206014503 23 299 1.0 3.0 0.00 0.00 0.00 60 1017.0
20221206014003 23 295 1.0 3.0 0.00 0.00 0.00 60 1017.0
20221206013503 23 291 1.0 4.0 0.00 0.00 0.00 60 1017.0
20221206013003 23 319 1.0 4.0 0.00 0.00 0.00 60 1017.0
20221206012504 23 314 2.0 4.0 0.00 0.00 0.00 60 1016.9
20221206012003 23 306 2.0 7.0 0.00 0.00 0.00 60 1016.9
20221206011503 24 315 2.0 8.0 0.00 0.00 0.00 60 1016.8
20221206011024 24 304 2.0 8.0 0.00 0.00 0.00 60 1016.7
20221206010503 24 301 3.0 10.0 0.00 0.00 0.00 60 1016.8
20221206010003 24 307 3.0 10.0 0.00 0.00 0.00 60 1016.8
20221206005505 24 306 2.0 10.0 0.00 0.00 0.00 61 1016.7
20221206005003 24 305 3.0 8.0 0.00 0.00 0.00 61 1016.7
20221206004503 24 303 4.0 12.0 0.00 0.00 0.00 61 1016.7
20221206004003 25 297 4.0 12.0 0.00 0.00 0.00 62 1016.7
20221206003503 25 294 3.0 8.0 0.00 0.00 0.00 63 1016.7
20221206003003 25 298 3.0 9.0 0.00 0.00 0.00 63 1016.6
20221206002504 25 301 3.0 9.0 0.00 0.00 0.00 63 1016.4
20221206002003 25 305 3.0 9.0 0.00 0.00 0.00 64 1016.4
20221206001503 25 303 3.0 9.0 0.00 0.00 0.00 64 1016.4
20221206001003 25 301 2.0 7.0 0.00 0.00 0.00 65 1016.4
20221206000503 25 298 3.0 8.0 0.00 0.00 0.00 66 1016.3
20221206000004 25 296 4.0 8.0 0.00 0.00 0.00 67 1016.2
20221205235503 25 298 4.0 8.0 0.00 0.00 0.00 67 1016.1
20221205235004 26 303 3.0 8.0 0.00 0.00 0.00 68 1016.1
20221205234503 26 299 2.0 8.0 0.00 0.00 0.00 68 1016.0
20221205234003 26 287 1.0 4.0 0.00 0.00 0.00 68 1016.0
20221205233503 26 292 2.0 8.0 0.00 0.00 0.00 68 1016.0
20221205233003 26 292 2.0 8.0 0.00 0.00 0.00 68 1016.0
20221205232503 26 285 2.0 6.0 0.00 0.00 0.00 68 1016.0
20221205232004 26 287 2.0 5.0 0.00 0.00 0.00 67 1015.9
20221205231503 26 291 3.0 10.0 0.00 0.00 0.00 67 1015.9
20221205231025 26 292 3.0 10.0 0.00 0.00 0.00 67 1015.8
20221205230503 26 295 2.0 9.0 0.00 0.00 0.00 67 1015.7
20221205230003 26 296 3.0 11.0 0.00 0.00 0.00 66 1015.6
20221205225503 26 296 4.0 11.0 0.00 0.00 0.00 66 1015.7
20221205225003 27 292 4.0 9.0 0.00 0.00 0.00 66 1015.6
20221205224504 27 292 3.0 9.0 0.00 0.00 0.00 66 1015.6
20221205224004 27 297 3.0 9.0 0.00 0.00 0.00 65 1015.5
20221205223504 27 304 4.0 10.0 0.00 0.00 0.00 65 1015.4
20221205223003 27 311 4.0 10.0 0.00 0.00 0.00 64 1015.4
20221205222503 27 312 3.0 9.0 0.00 0.00 0.00 64 1015.4
20221205222003 28 299 3.0 9.0 0.00 0.01 0.00 63 1015.1
20221205221503 28 303 3.0 9.0 0.00 0.01 0.00 63 1015.0
20221205221005 28 310 4.0 11.0 0.00 0.01 0.00 63 1015.0
20221205220503 28 306 4.0 11.0 0.00 0.01 0.00 62 1015.0
20221205220003 28 294 2.0 9.0 0.00 0.01 0.00 62 1014.8
20221205215503 28 292 2.0 8.0 0.00 0.01 0.00 61 1014.8
20221205215003 28 312 3.0 9.0 0.00 0.01 0.00 61 1014.9
20221205214503 29 320 4.0 11.0 0.00 0.01 0.00 61 1014.8
20221205214004 29 318 4.0 11.0 0.00 0.01 0.00 60 1014.7
20221205213503 29 310 5.0 14.0 0.00 0.01 0.00 60 1014.5
20221205213003 29 313 4.0 14.0 0.00 0.01 0.00 60 1014.4
20221205212503 29 321 4.0 12.0 0.00 0.01 0.00 60 1014.4
20221205212003 29 318 4.0 12.0 0.00 0.01 0.00 60 1014.3
20221205211503 29 319 3.0 10.0 0.00 0.01 0.00 60 1014.1
20221205211003 30 309 2.0 8.0 0.00 0.01 0.00 60 1014.0
20221205210503 30 292 3.0 12.0 0.00 0.01 0.00 60 1013.8
20221205210003 30 293 4.0 12.0 0.00 0.01 0.00 60 1013.7
20221205205503 30 303 4.0 9.0 0.00 0.01 0.00 60 1013.6
20221205205004 30 292 4.0 8.0 0.00 0.01 0.00 60 1013.5
20221205204525 30 288 4.0 11.0 0.00 0.01 0.00 61 1013.5
20221205204004 30 294 3.0 11.0 0.00 0.01 0.00 61 1013.4
20221205203524 30 313 2.0 8.0 0.00 0.01 0.00 61 1013.4
20221205203003 30 319 2.0 8.0 0.00 0.01 0.00 60 1013.3
20221205202503 30 309 3.0 9.0 0.00 0.01 0.00 60 1013.5
20221205202004 30 301 4.0 9.0 0.00 0.01 0.00 60 1013.5
20221205201504 30 298 3.0 9.0 0.00 0.01 0.00 61 1013.4
20221205201004 30 297 3.0 9.0 0.00 0.01 0.00 61 1013.3
20221205200504 30 301 3.0 9.0 0.00 0.01 0.00 61 1013.3
20221205200003 30 306 3.0 9.0 0.00 0.01 0.00 61 1013.2
20221205195525 31 314 3.0 7.0 0.00 0.01 0.00 61 1012.9
20221205195003 31 313 4.0 10.0 0.00 0.01 0.00 60 1012.9
20221205194505 31 308 4.0 10.0 0.00 0.01 0.00 60 1012.9
20221205194004 31 299 4.0 11.0 0.00 0.01 0.00 61 1012.9
20221205193524 31 303 4.0 11.0 0.00 0.01 0.00 60 1012.8
20221205193003 31 325 3.0 8.0 0.00 0.01 0.00 60 1012.7
20221205192504 31 316 3.0 10.0 0.00 0.01 0.00 60 1012.7
20221205192003 31 306 3.0 10.0 0.00 0.01 0.00 61 1012.8
20221205191503 31 306 2.0 5.0 0.00 0.01 0.00 61 1012.7
20221205191003 31 312 2.0 6.0 0.00 0.01 0.00 60 1012.6
20221205190504 32 307 3.0 9.0 0.00 0.01 0.00 60 1012.6
20221205190025 32 298 3.0 9.0 0.00 0.01 0.00 60 1012.6
20221205185503 32 295 3.0 10.0 0.00 0.01 0.00 61 1012.5
20221205185003 32 294 4.0 10.0 0.00 0.01 0.00 62 1012.5
20221205184503 32 299 3.0 9.0 0.00 0.01 0.00 63 1012.5
20221205184024 32 312 2.0 6.0 0.00 0.01 0.00 64 1012.5
20221205183503 31 297 3.0 8.0 0.00 0.01 0.00 64 1012.7
20221205183003 31 289 3.0 8.0 0.00 0.01 0.00 63 1012.7
20221205182503 31 288 2.0 7.0 0.00 0.01 0.00 65 1012.5
20221205182004 31 285 2.0 7.0 0.00 0.01 0.00 66 1012.5
20221205181503 31 284 3.0 7.0 0.00 0.01 0.00 66 1012.3
20221205181004 31 286 2.0 7.0 0.00 0.01 0.00 66 1012.3
20221205180524 31 288 2.0 6.0 0.00 0.01 0.00 68 1012.3
20221205180003 31 284 2.0 8.0 0.00 0.01 0.00 68 1012.2
20221205175503 31 290 3.0 8.0 0.00 0.01 0.00 68 1012.2
20221205175004 31 296 3.0 8.0 0.00 0.01 0.00 68 1012.2
20221205174503 31 294 4.0 8.0 0.00 0.01 0.00 68 1012.4
20221205174003 31 291 3.0 7.0 0.00 0.01 0.00 69 1012.4
20221205173524 31 291 3.0 7.0 0.00 0.01 0.00 69 1012.4
20221205173025 31 290 4.0 7.0 0.00 0.01 0.00 69 1012.5
20221205172503 30 293 4.0 8.0 0.00 0.01 0.00 69 1012.5
20221205172003 30 299 4.0 9.0 0.00 0.01 0.00 69 1012.7
20221205171503 30 299 4.0 9.0 0.00 0.01 0.00 70 1012.5
20221205171025 30 303 3.0 9.0 0.00 0.01 0.00 70 1012.6
20221205170503 30 305 3.0 10.0 0.00 0.01 0.00 70 1012.6
20221205170003 30 295 4.0 10.0 0.00 0.01 0.00 70 1012.7
20221205165503 30 288 4.0 8.0 0.00 0.01 0.00 71 1012.6
20221205165003 30 292 4.0 8.0 0.00 0.01 0.00 71 1012.6
20221205164504 30 295 4.0 9.0 0.00 0.01 0.00 71 1012.7
20221205164003 30 294 3.0 9.0 0.00 0.01 0.00 71 1012.8
20221205163504 30 296 3.0 7.0 0.00 0.01 0.00 72 1012.7
20221205163003 30 294 3.0 8.0 0.00 0.01 0.00 73 1012.7
20221205162503 29 287 3.0 9.0 0.00 0.01 0.00 75 1012.8
20221205162003 29 284 3.0 9.0 0.00 0.01 0.00 76 1012.6
20221205161503 29 285 3.0 8.0 0.00 0.01 0.00 75 1012.5
20221205161003 29 286 4.0 10.0 0.00 0.01 0.00 75 1012.4
20221205160503 29 284 5.0 10.0 0.00 0.01 0.00 76 1012.5
20221205160003 29 290 4.0 10.0 0.00 0.01 0.00 76 1012.3
20221205155503 29 292 4.0 9.0 0.00 0.01 0.00 76 1012.4
20221205155003 29 286 3.0 8.0 0.00 0.01 0.00 77 1012.2
20221205154524 28 291 3.0 7.0 0.00 0.01 0.00 77 1012.2
20221205154025 28 295 3.0 9.0 0.00 0.01 0.00 77 1012.1
20221205153504 28 295 3.0 9.0 0.00 0.01 0.00 78 1012.0
20221205153025 28 299 3.0 10.0 0.00 0.01 0.00 77 1012.0
20221205152503 28 299 3.0 10.0 0.00 0.01 0.00 77 1011.8
20221205152024 28 293 2.0 8.0 0.00 0.01 0.00 77 1011.8
20221205151503 28 284 2.0 4.0 0.00 0.01 0.00 77 1011.8
20221205151004 28 289 3.0 7.0 0.00 0.01 0.00 77 1011.7
20221205150504 27 301 3.0 7.0 0.00 0.01 0.00 77 1011.7
20221205150005 27 300 2.0 7.0 0.00 0.01 0.00 77 1011.6
20221205145503 27 301 2.0 7.0 0.00 0.01 0.00 77 1011.4
20221205145003 27 300 3.0 9.0 0.00 0.01 0.00 77 1011.4
20221205144503 27 297 2.0 9.0 0.00 0.01 0.00 77 1011.5
20221205144003 27 305 3.0 9.0 0.00 0.01 0.00 77 1011.1
20221205143503 27 305 3.0 9.0 0.00 0.01 0.00 77 1011.2
20221205143003 27 299 3.0 8.0 0.00 0.01 0.00 77 1011.2
20221205142503 27 297 3.0 8.0 0.00 0.01 0.00 77 1011.2
20221205142025 27 294 3.0 8.0 0.00 0.01 0.00 77 1011.2
20221205141503 27 291 4.0 9.0 0.00 0.01 0.00 77 1011.1
20221205141004 27 294 4.0 9.0 0.00 0.01 0.00 77 1011.0
20221205140504 27 304 3.0 7.0 0.00 0.01 0.00 77 1010.7
20221205140004 26 308 2.0 6.0 0.00 0.01 0.00 77 1010.5
20221205135503 26 297 2.0 8.0 0.00 0.01 0.00 77 1010.5
20221205135003 26 300 3.0 8.0 0.00 0.01 0.00 77 1010.4
20221205134503 26 310 2.0 7.0 0.00 0.01 0.00 77 1010.3
20221205134003 26 300 2.0 7.0 0.00 0.01 0.00 77 1010.3
20221205133503 26 301 2.0 7.0 0.00 0.01 0.00 77 1010.2
20221205133024 26 314 1.0 4.0 0.00 0.01 0.00 76 1010.0
20221205132503 26 318 1.0 3.0 0.00 0.01 0.00 76 1010.0
20221205132003 26 297 1.0 4.0 0.00 0.01 0.00 76 1009.9
20221205131502 26 286 2.0 4.0 0.00 0.01 0.00 76 1010.0
20221205131002 26 284 2.0 4.0 0.00 0.01 0.00 76 1009.8
20221205130502 26 279 2.0 4.0 0.00 0.01 0.00 76 1009.7
20221205130023 26 274 1.0 6.0 0.00 0.01 0.00 76 1009.6
20221205125525 26 286 1.0 6.0 0.00 0.01 0.00 76 1009.6
20221205125003 26 296 2.0 3.0 0.00 0.01 0.00 76 1009.5
20221205124524 26 297 1.0 5.0 0.00 0.01 0.00 76 1009.4
20221205124002 26 299 1.0 5.0 0.00 0.01 0.00 76 1009.2
20221205123502 26 298 2.0 3.0 0.00 0.01 0.00 76 1009.3
20221205123002 26 293 2.0 4.0 0.00 0.01 0.00 76 1009.2
20221205122502 26 288 2.0 5.0 0.00 0.01 0.00 76 1009.2
20221205122002 26 286 2.0 5.0 0.00 0.01 0.00 76 1009.3
20221205121502 26 288 1.0 4.0 0.00 0.01 0.00 76 1009.2
20221205121003 26 289 1.0 3.0 0.00 0.01 0.00 76 1009.1
20221205120502 27 289 1.0 3.0 0.00 0.01 0.00 76 1008.8
20221205120003 27 289 1.0 2.0 0.00 0.01 0.00 76 1009.1
20221205115502 27 289 1.0 3.0 0.00 0.01 0.00 76 1009.1
20221205115003 27 289 0.0 3.0 0.00 0.01 0.00 76 1009.0
20221205114523 27 289 1.0 2.0 0.00 0.01 0.00 76 1008.9
20221205114024 27 289 1.0 3.0 0.00 0.01 0.00 76 1008.7
20221205113502 27 289 1.0 3.0 0.00 0.01 0.00 76 1008.7
20221205113002 27 289 0.0 2.0 0.00 0.01 0.00 76 1008.6
20221205112502 27 289 0.0 2.0 0.00 0.01 0.00 76 1008.7
20221205112003 27 289 1.0 2.0 0.00 0.01 0.00 76 1008.8
20221205111524 27 289 0.0 2.0 0.00 0.01 0.00 76 1008.8
20221205111002 27 289 1.0 3.0 0.00 0.01 0.00 76 1008.8
20221205110502 27 289 0.0 3.0 0.00 0.01 0.00 76 1009.1
20221205110002 27 289 0.0 2.0 0.00 0.01 0.00 76 1009.1
20221205105502 27 289 1.0 2.0 0.00 0.01 0.00 76 1009.0
20221205105002 27 289 1.0 3.0 0.00 0.01 0.00 76 1009.2
20221205104523 27 289 1.0 3.0 0.00 0.01 0.00 76 1009.2
20221205104004 27 289 0.0 1.0 0.00 0.01 0.00 76 1009.3
20221205103503 27 289 0.0 1.0 0.00 0.01 0.00 76 1009.1
20221205103023 27 289 0.0 2.0 0.00 0.01 0.00 76 1009.1